Content
SEND FEEDBACK

Daily
Averages
Monthly
Summary
United States of America

OSKALOOSA, KANSAS


Home > North America > United States > Kansas
Elevation: 1094 feet     Latitude: 39 13N     Longitude: 095 19W

WEATHER
 
SELECT A DAY
Number of Records: 189,976;   Date Range: 7/1/96 - 11/21/14
 
SHARE

PRINT THIS DATA

[ ← Previous Day ]
WEATHER ALMANAC - JANUARY 31, 2013
[ Next Day → ]
[ °C ]   °F
Weather ElementAverageHighLow
Temperature17.2 °F25 °F (3:52 am)6.1 °F (10:52 pm)
Dewpoint8.2 °F19 °F (3:52 am) (7:00 pm)
Humidity68.4 %85 % (4:52 am)52 % (2:52 pm)
Barometer30.26 in30.53 in (9:52 pm)29.99 in (4:52 am)
Wind Speed9.7 mph25.3 mph (12:52 pm)
Wind Gust34.5 mph (12:52 pm)
Weather ElementAverage
Visibility9.5 mi
Wind DirectionSW (226.4 °)

Weather ElementTotal
Precipitation---
Heating Degree Days49.5 (Base 65)
Averaged from 22 records on January 31, 2013
WEATHER CONDITIONS BREAKOUT
WIND DIRECTION BREAKOUT
WEATHER BY HOUR - JANUARY 31, 2013
[ °C ]   °F
Local TimeTemperatureDewpointHumidityBarometerVisibilityWind DirectionWind SpeedGust SpeedPrecipitationEventsConditions
1:52 AM17.1 °F12.9 °F84 %30.01 in8.0 miCalmPartly Cloudy
2:52 AM21.0 °F16.0 °F81 %30.01 in8.0 miCalmOvercast
3:52 AM25.0 °F19.0 °F78 %30.00 in9.0 miCalmOvercast
4:52 AM23.0 °F19.0 °F85 %29.99 in8.0 miCalmClear
5:52 AM23.0 °F18.0 °F81 %30.02 in8.0 miNW (320°)3.5 mphOvercast
6:52 AM23.0 °F17.1 °F78 %30.06 in9.0 miNW (320°)6.9 mphMostly Cloudy
7:52 AM21.0 °F12.9 °F71 %30.10 in10.0 miNorth (360°)11.5 mphScattered Clouds
8:52 AM21.0 °F12.9 °F71 %30.15 in10.0 miNorth (350°)13.8 mphMostly Cloudy
9:52 AM21.9 °F12.0 °F66 %30.19 in10.0 miNNW (330°)15.0 mph21.9 mphScattered Clouds
10:52 AM19.9 °F7.0 °F57 %30.24 in10.0 miNNW (340°)20.7 mph26.5 mphOvercast
11:52 AM21.0 °F8.1 °F57 %30.27 in10.0 miNNW (330°)24.2 mph33.4 mphOvercast
12:52 PM21.9 °F8.1 °F55 %30.29 in10.0 miNW (320°)25.3 mph34.5 mphMostly Cloudy
2:52 PM19.0 °F3.9 °F52 %30.33 in10.0 miNW (320°)20.7 mphClear
3:52 PM18.0 °F5.0 °F57 %30.36 in10.0 miNNW (340°)15.0 mph20.7 mphScattered Clouds
4:52 PM18.0 °F3.0 °F52 %30.38 in10.0 miNNW (330°)21.9 mph26.5 mphClear
5:52 PM14.0 °F1.9 °F59 %30.41 in10.0 miNNW (330°)15.0 mphClear
6:52 PM12.9 °F1.0 °F59 %30.44 in10.0 miNNW (330°)11.5 mphClear
7:52 PM8.1 °F1.0 °F73 %30.46 in10.0 miNorth (350°)5.8 mphClear
8:52 PM10.0 °F1.0 °F67 %30.51 in10.0 miCalmClear
9:52 PM8.1 °F0.0 °F70 %30.53 in10.0 miNW (310°)3.5 mphClear
10:52 PM6.1 °F0.0 °F76 %30.53 in10.0 miCalmClear
11:52 PM6.1 °F0.0 °F76 %30.53 in10.0 miCalmClear
Hourly data recorded from KLWC, located miles away from Oskaloosa, Kansas







STORIES FROM OUR PARTNERS